Showing default

OPS 9346 (IDSCS 24), 3289

Orbit data source: Space-Track

OPS 9346 (IDSCS 24), 3289 is a payload satellite owned by SAMSO (US) in GEO that was launched on Thu, 13 Jun 1968 UTC via a TITAN IIIC launch vehicle from the Air Force Eastern Test Range (AFETR). Payload-class satellites include a variety of spacecraft equipped with specific instruments for various scientific and technological missions. These include communications satellites like Starlink; space stations such as the ISS; scientific satellites like the Hubble; Earth observation satellites from companies like Planet Labs, Umbra, and HawkEye 360; GPS; miniature CubeSats for education and research; and military/defense satellites.

Loading next visibility...
Identifier
3289, 1968-050F
Orbit
GEO
Country
Flag of USUS
Related business
Manufacturer
Philco-Ford
Mission
Non-operational spacecraft
Bus & Motor
IDCSP, Unknown motor
Mass
45 kg wet, 45 kg dry
Launch date (UTC)
1968-06-13 (58 years ago)
Launch vehicle
TITAN IIIC
Launch site
Air Force Eastern Test Range (AFETR)
Object type
Payload
Rocket body
Debris
Shape & HBR
Unknown
Radar Cross Section
Medium (>0.1 m² and <1 m²)

Expand to show TLE details & history
Last TLE update: 19 hours ago

TLE from 19 hours ago
0 OPS 9346 (IDSCS 24)
1 03289U 68050F   25350.49211472 -.00000035  00000-0  00000-0 0  9995
2 03289   6.7017  55.0254 0046025 138.0885 223.4008  1.07286789 48690
Epoch: 2025-12-16T11:48Z
TLE epoch observation values (Epoch: 2025-12-16T11:48:38.711Z)
Latitude
0.14972°
Longitude
153.60453°
Altitude
34,062.632 km
Speed
3.134 km/s
True Right ascension
03h 44m 33s
True Declination
0° 08' 58"
Sunlit
Object was in daylight at epoch
Visualization orbit readout
Latitude
Unknown
Longitude
Unknown
Altitude
Unknown
Speed
Unknown
Apparent Right ascension
Unknown
Apparent Declination
Unknown
Sunlit
N/A
Visualization observer readout
Local Sidereal Time
05:57:11
Azimuth
Unknown
Elevation
Unknown
Doppler factor
Unknown
Orbital elements
Apogee altitude
34,114.594 km
Perigee altitude
33,743.566 km
Semi-major axis
40,307.217 km
Eccentricity
0.0046
Inclination
6.7017°
RAAN
55.0254°
Arg. of periapsis
138.0885°
True anomaly
223.03993°
Mean anomaly
223.4008°
Eccentric anomaly
223.22021°
Mean motion
0.26821 °/min
Orbital period
1,342.25 mins
BSTAR
0
Loading maneuver chart data...
Computing Atmospheric mass density...
Loading historical data...
Loading historical data...
Loading historical data...
Loading historical data...
Loading historical data...
Loading historical data...
Loading historical data...

Documentation

Showing up to 5 results
|